Regional Weather Roundup
Issued by NWS

Home | Current Version | Previous Version | Text Only | Print | Product List | Glossary Off
Versions: 1 2 3 4 5 6 7 8 9 10 11 12 13 14 15 16 17 18 19 20 21 22 23 24 25 26 27 28 29 30 31 32 33 34 35 36 37 38 39 40 41 42 43 44 45 46 47 48 49 50

000
ASUS43 KLOT 310708
RWRIL

ILLINOIS REGIONAL WEATHER ROUNDUP
NATIONAL WEATHER SERVICE CHICAGO/ROMEOVILLE IL
200 AM CDT TUE MAY 31 2016

NOTE: "FAIR" INDICATES FEW OR NO CLOUDS BELOW 12,000 FEET WITH NO
SIGNIFICANT WEATHER AND/OR OBSTRUCTIONS TO VISIBILITY.

* THESE STATIONS ARE NOT UNDER NWS QUALITY CONTROL. THEY ALSO MAY NOT
  REPORT WEATHER SUCH AS PRECIPITATION OR FOG.

ILZ001-002-007-009-015-016-024-310800-
NORTHWEST ILLINOIS

CITY           SKY/WX    TMP DP  RH WIND       PRES   REMARKS
MOLINE         MOCLDY    70  62  76 SW3       29.95F
STERLING*      CLOUDY    70  61  73 E3        29.96F
SAVANNA*       MOCLDY    67  61  79 NW8       29.96S
$$

ILZ003-004-008-010-011-017-018-310800-
NORTH CENTRAL ILLINOIS

CITY           SKY/WX    TMP DP  RH WIND       PRES   REMARKS
ROCKFORD       PTCLDY    67  55  65 SE3       30.01R
FREEPORT*      CLOUDY    65  57  76 E7        29.99F
ROCHELLE*      CLOUDY    67  57  70 SE8       29.99S
DE KALB*       CLOUDY    64  57  79 E7        30.00S
$$

ILZ005-006-012>014-019>023-310800-
NORTHEAST ILLINOIS

CITY           SKY/WX    TMP DP  RH WIND       PRES   REMARKS
CHICAGO-OHARE  MOCLDY    68  55  63 E7        29.99S
CHICAGO-MIDWAY CLOUDY    70  55  59 E7        29.99S
AURORA         PTCLDY    66  58  75 E3        29.99S
LANSING*       CLOUDY    67  57  72 CALM      30.00R
JOLIET*        PTCLDY    70  58  66 E7        29.98F
WAUKEGAN       CLOUDY    59  57  93 CALM      29.99F
DUPAGE AIRPORT MOCLDY    68  54  60 SE5       29.99S
KANKAKEE*      PTCLDY    67  60  78 CALM      29.99S
WHEELING       CLOUDY    66  56  70 CALM      30.01S
MORRIS*        CLOUDY    69  56  64 E6        29.97S
ROMEOVILLE*    CLOUDY    67  55  64 E9        29.99S
NORTHERLY ISL    N/A     63  55  75 N3          N/A
NORTHERLY ISL    N/A     63  55  75 N3          N/A
$$

LMZ740>746-310800-
SOUTHERN LAKE MICHIGAN

STATION/POSITION SKY/WX   TEMP    WIND        PRES    VSBY  WAVE
                          AIR SEA DIR/SP/G                  HT/PER
                          (F)     (DEG/KT/KT) (MB)    (MI)  (FT/S)
SOUTHERN BUOY              61 57  120/  4/  6 1015.4F         0
WILMETTE HARBOR            58 58  320/  4/  4   N/A           0
HARRISON CRIB              64      50/  4/  5   N/A
BURNHAM HARBOR             63     350/  3/  4   N/A
CALUMET HARBOR             63      20/  3/  5 1015.1F
BURNS HARBOR               63      70/  6/  7 1015.9F
MICHIGAN CITY              67      50/  7/  8   N/A
MICHIGAN CITY 6N           63 61   80/  4/  4   N/A           1
ST. JOSEPH                 67 65   50/  4/  6   N/A           1
$$

ILZ025>027-034>036-040-047-049-050-058-095>099-310800-
WEST-CENTRAL ILLINOIS

CITY           SKY/WX    TMP DP  RH WIND       PRES   REMARKS
QUINCY         CLOUDY    67  62  84 CALM      29.97F
GALESBURG*     CLOUDY    68  64  87 CALM      29.97F
MACOMB*        CLOUDY    69  63  82 W5        30.00F
JACKSONVILLE*  CLOUDY    70  59  69 W3        29.98S
PITTSFIELD*    CLOUDY    70  61  75 CALM      29.99F
$$

ILZ028>032-037-038-041>044-048-051>054-059>061-310800-
CENTRAL ILLINOIS

CITY           SKY/WX    TMP DP  RH WIND       PRES   REMARKS
PONTIAC        CLOUDY    71  63  75 CALM      29.98S
BLOOMINGTON    MOCLDY    73  60  63 W5        29.98F
DECATUR        CLOUDY    66  61  84 CALM      29.97S
PEORIA         CLOUDY    70  62  76 S5        29.97S
LACON*         MOCLDY    67  63  87 CALM      29.96S
LINCOLN*       MOCLDY    72  60  66 CALM      29.97S
SPRINGFIELD    CLOUDY    67  61  81 CALM      29.98S
TAYLORVILLE    CLOUDY    65  60  84 SW3       29.98R
$$

ILZ033-039-045-046-055>057-062-063-310800-
EAST-CENTRAL ILLINOIS

CITY           SKY/WX    TMP DP  RH WIND       PRES   REMARKS
CHAMPAIGN      CLOUDY    67  60  78 CALM      29.98S
RANTOUL*       CLOUDY    68  62  80 CALM      29.97S
MATTOON        PTCLDY    66  62  87 CALM      29.96F
PARIS*         CLOUDY    66  62  89 CALM      29.99R
$$

ILZ079-100>102-310800-
SOUTHWEST ILLINOIS

CITY           SKY/WX    TMP DP  RH WIND       PRES   REMARKS
ALTON          CLOUDY    66  62  85 CALM      29.98S
CAHOKIA*       CLOUDY    68  63  84 CALM      29.97S
SPARTA*        CLOUDY    70  65  83 CALM      29.97F
$$

ILZ064>066-069>071-074>076-080>082-084>086-088>090-092>094-310800-
SOUTH-CENTRAL ILLINOIS

CITY           SKY/WX    TMP DP  RH WIND       PRES   REMARKS
CARBONDALE     CLOUDY    68  66  93 CALM      29.95F
CAIRO*         CLOUDY    68  67  97 CALM      29.94F
EFFINGHAM*     PTCLDY    68  68 100 CALM      29.98S
MARION         MOCLDY    68  66  94 CALM      29.97S
MT. VERNON     CLOUDY    64  61  88 CALM      29.97S
CENTRALIA*     CLOUDY    69  69  98 CALM      29.96S
SALEM*         CLOUDY    71  67  88 CALM      29.96F
METROPOLIS*    PTCLDY    67  67  99 CALM      29.96S
$$

ILZ067-068-072-073-078-083-087-091-310800-
SOUTHEAST ILLINOIS

CITY           SKY/WX    TMP DP  RH WIND       PRES   REMARKS
LAWRENCEVILLE  CLOUDY    66  63  90 NE3       29.97S
FLORA*         CLOUDY    69  67  94 CALM      29.97S
FAIRFIELD*     CLOUDY    67  66  95 CALM      29.95S
HARRISBURG*    CLOUDY    68  68  98 CALM      29.96S
ROBINSON*      CLOUDY    66  64  93 CALM      29.97F
CARMI*         CLOUDY    68  67  96 CALM      29.95F
$$

ABBREVIATIONS USED IN REMARKS
   TC - TEMPERATURE IN CELSIUS
  WCI - WIND CHILL INDEX
   HX - HEAT INDEX
  VSB - VISIBILITY
$$





USA.gov is the U.S. government's official web portal to all federal, state and local government web resources and services.